Regional Weather Roundup
Issued by NWS

Home | Current Version | Previous Version | Graphics & Text | Print | Product List | Glossary On
Versions: 1 2 3 4 5 6 7 8 9 10 11 12 13 14 15 16 17 18 19 20 21 22 23 24 25 26 27 28 29 30 31 32 33 34 35 36 37 38 39 40 41 42 43 44 45 46 47 48 49 50
081
ASUS45 KCYS 240810
RWRWY

WYOMING REGIONAL WEATHER ROUNDUP
NATIONAL WEATHER SERVICE CHEYENNE WY
200 AM MDT WED AUG 24 2016

NOTE:  "FAIR" INDICATES FEW OR NO CLOUDS BELOW 12,000 FEET
WITH NO SIGNIFICANT WEATHER AND/OR OBSTRUCTIONS TO VISIBILITY.

WYZ001-240900-
YELLOWSTONE NATIONAL PARK

CITY           SKY/WX    TMP DP  RH WIND       PRES   REMARKS
LK YELLOWSTONE   N/A     44  22  41 CALM      30.34S
W YELLOWSTONE  NOT AVBL

$$
WYZ002>013-054>058-071-098>099-240900-
NORTHERN WYOMING

CITY           SKY/WX    TMP DP  RH WIND       PRES   REMARKS
JACKSON        FAIR      36  25  64 NW5       30.26R WCI  32
CODY           FAIR      54  37  54 NW9       30.26S
GREYBULL       FAIR      61  39  44 NW20      30.14S
WORLAND        FAIR      60  36  40 VRB5      30.16R
SHERIDAN       FAIR      55  42  61 W10       30.22S
BUFFALO        FAIR      56  38  50 NW12G24   30.24S
GILLETTE       FAIR      55  37  50 NW6       30.19R
HULETT         FAIR      59  37  44 CALM      30.18S
NEWCASTLE      FAIR      57  28  33 N7        30.15S

$$
WYZ014>020-022>026-101>103-240900-
CENTRAL WYOMING

CITY           SKY/WX    TMP DP  RH WIND       PRES   REMARKS
BIG PINEY      FAIR      38  16  40 CALM      30.28S
PINEDALE       FAIR      32  21  64 W6        30.27F WCI  26
DUBOIS         PTSUNNY   41  18  38 W9        30.29R
LANDER         FAIR      56  23  27 SW9       30.21F
RIVERTON       FAIR      54  23  30 N8        30.22S
CASPER         FAIR      50  28  42 N9        30.19S
DOUGLAS        FAIR      60  28  29 NE12      30.16R

$$
WYZ021-027>030-104>119-240900-
SOUTHERN WYOMING

CITY           SKY/WX    TMP DP  RH WIND       PRES   REMARKS
EVANSTON       FAIR      57  20  23 CALM      30.28S
FORT BRIDGER   SUNNY     52  16  24 W7        30.30S
ROCK SPRINGS   FAIR      54  14  20 E10       30.26R
DIXON          FAIR      55  40  56 CALM      30.27S
RAWLINS        FAIR      59  35  40 W13       30.22F
SARATOGA       FAIR      50  34  53 E10       30.26S
LARAMIE        CLOUDY    57  37  47 SW7       30.25S
CHEYENNE       FAIR      57  40  52 W7        30.18S
TORRINGTON     FAIR      57  36  45 NE10      30.10R
PINE BLUFFS    FAIR      59  39  47 S6        30.16S

$$




USA.gov is the U.S. government's official web portal to all federal, state and local government web resources and services.